| time (UTC) | temp F | wind direction | speed MPH | gust MPH | rain 1hr in | rain 24hr in | rain mn in | humidity % | barometer mb |
| 20260509091503 | 72 | 346 | 1.0 | 7.0 | 0.00 | 0.19 | 0.00 | 78 | 1007.5 |
| 20260509091214 | 72 | 351 | 1.0 | 7.0 | 0.00 | 0.19 | 0.00 | 77 | 1007.5 |
| 20260509090713 | 72 | 360 | 0.0 | 6.0 | 0.00 | 0.19 | 0.00 | 76 | 1007.6 |
| 20260509090003 | 73 | 356 | 0.0 | 4.0 | 0.00 | 0.19 | 0.00 | 74 | 1007.6 |
| 20260509085503 | 73 | 295 | 1.0 | 5.0 | 0.00 | 0.19 | 0.00 | 73 | 1007.5 |
| 20260509085003 | 73 | 215 | 2.0 | 8.0 | 0.00 | 0.19 | 0.00 | 73 | 1007.6 |
| 20260509084713 | 73 | 226 | 3.0 | 9.0 | 0.00 | 0.19 | 0.00 | 74 | 1008.0 |
| 20260509084003 | 72 | 188 | 3.0 | 9.0 | 0.00 | 0.19 | 0.00 | 78 | 1008.0 |
| 20260509083503 | 71 | 144 | 4.0 | 9.0 | 0.00 | 0.19 | 0.00 | 82 | 1007.0 |
| 20260509083214 | 72 | 145 | 4.0 | 9.0 | 0.00 | 0.19 | 0.00 | 82 | 1005.5 |
| 20260509082503 | 72 | 139 | 4.0 | 12.0 | 0.00 | 0.20 | 0.00 | 81 | 1005.4 |
| 20260509082003 | 71 | 137 | 4.0 | 12.0 | 0.00 | 0.21 | 0.00 | 81 | 1004.9 |
| 20260509081503 | 71 | 161 | 3.0 | 9.0 | 0.00 | 0.21 | 0.00 | 81 | 1005.4 |
| 20260509081003 | 72 | 147 | 3.0 | 9.0 | 0.00 | 0.21 | 0.00 | 81 | 1006.1 |
| 20260509080503 | 72 | 129 | 4.0 | 9.0 | 0.00 | 0.21 | 0.00 | 81 | 1005.4 |
| 20260509080003 | 72 | 149 | 3.0 | 9.0 | 0.00 | 0.21 | 0.00 | 80 | 1006.0 |
| 20260509075503 | 71 | 172 | 3.0 | 11.0 | 0.00 | 0.21 | 0.00 | 84 | 1006.5 |
| 20260509075003 | 70 | 172 | 3.0 | 11.0 | 0.00 | 0.21 | 0.00 | 89 | 1007.1 |
| 20260509074712 | 70 | 173 | 3.0 | 9.0 | 0.00 | 0.21 | 0.00 | 90 | 1007.4 |
| 20260509074003 | 70 | 158 | 3.0 | 8.0 | 0.00 | 0.21 | 0.00 | 91 | 1008.0 |
| 20260509073503 | 70 | 195 | 3.0 | 7.0 | 0.00 | 0.22 | 0.00 | 92 | 1008.3 |
| 20260509073003 | 70 | 212 | 3.0 | 8.0 | 0.00 | 0.22 | 0.00 | 92 | 1008.5 |
| 20260509072503 | 70 | 206 | 3.0 | 8.0 | 0.00 | 0.24 | 0.00 | 92 | 1009.0 |
| 20260509072003 | 70 | 200 | 2.0 | 7.0 | 0.00 | 0.24 | 0.00 | 92 | 1009.1 |
| 20260509071503 | 70 | 181 | 3.0 | 10.0 | 0.00 | 0.25 | 0.00 | 92 | 1009.3 |
| 20260509071213 | 70 | 164 | 4.0 | 10.0 | 0.00 | 0.25 | 0.00 | 92 | 1009.3 |
| 20260509070712 | 70 | 180 | 3.0 | 10.0 | 0.00 | 0.27 | 0.00 | 92 | 1009.3 |
| 20260509070003 | 69 | 201 | 2.0 | 5.0 | 0.00 | 0.29 | 0.00 | 92 | 1009.6 |
| 20260509065712 | 69 | 209 | 2.0 | 5.0 | 0.00 | 0.29 | 0.00 | 92 | 1009.9 |
| 20260509065003 | 69 | 207 | 2.0 | 4.0 | 0.00 | 0.29 | 0.00 | 92 | 1010.2 |
| 20260509064503 | 69 | 188 | 1.0 | 4.0 | 0.00 | 0.29 | 0.00 | 92 | 1010.1 |
| 20260509064213 | 69 | 178 | 1.0 | 4.0 | 0.00 | 0.29 | 0.00 | 92 | 1010.1 |
| 20260509063503 | 69 | 214 | 1.0 | 3.0 | 0.00 | 0.29 | 0.00 | 92 | 1010.5 |
| 20260509063003 | 69 | 228 | 1.0 | 3.0 | 0.00 | 0.29 | 0.00 | 92 | 1010.6 |
| 20260509062503 | 68 | 234 | 1.0 | 3.0 | 0.00 | 0.29 | 0.00 | 92 | 1010.6 |
| 20260509062003 | 68 | 270 | 0.0 | 3.0 | 0.00 | 0.29 | 0.00 | 91 | 1010.5 |
| 20260509061503 | 69 | 251 | 1.0 | 3.0 | 0.00 | 0.29 | 0.00 | 91 | 1010.7 |
| 20260509061003 | 69 | 248 | 0.0 | 3.0 | 0.00 | 0.29 | 0.00 | 91 | 1010.8 |
| 20260509060503 | 69 | 273 | 0.0 | 3.0 | 0.00 | 0.29 | 0.00 | 91 | 1010.7 |
| 20260509060003 | 69 | 0 | 0.0 | 0.0 | 0.00 | 0.29 | 0.00 | 91 | 1010.6 |
| 20260509055503 | 69 | 140 | 0.0 | 1.0 | 0.00 | 0.29 | 0.00 | 90 | 1010.5 |
| 20260509055003 | 69 | 140 | 0.0 | 1.0 | 0.00 | 0.29 | 0.00 | 90 | 1010.5 |
| 20260509054503 | 69 | 140 | 1.0 | 3.0 | 0.00 | 0.29 | 0.00 | 90 | 1010.5 |
| 20260509054003 | 69 | 141 | 0.0 | 3.0 | 0.00 | 0.29 | 0.00 | 89 | 1010.2 |
| 20260509053503 | 70 | 307 | 0.0 | 2.0 | 0.00 | 0.29 | 0.00 | 89 | 1010.2 |
| 20260509053003 | 70 | 306 | 0.0 | 2.0 | 0.00 | 0.29 | 0.00 | 89 | 1010.7 |
| 20260509052713 | 70 | 306 | 0.0 | 2.0 | 0.00 | 0.29 | 0.00 | 88 | 1010.5 |
| 20260509052003 | 70 | 341 | 0.0 | 3.0 | 0.00 | 0.29 | 0.00 | 88 | 1011.0 |
| 20260509051713 | 71 | 331 | 1.0 | 7.0 | 0.00 | 0.29 | 0.00 | 88 | 1010.9 |
| 20260509051212 | 71 | 339 | 1.0 | 7.0 | 0.00 | 0.29 | 0.00 | 88 | 1011.1 |
| 20260509050503 | 71 | 343 | 1.0 | 5.0 | 0.00 | 0.29 | 0.00 | 87 | 1011.2 |
| 20260509050003 | 71 | 342 | 0.0 | 5.0 | 0.00 | 0.29 | 0.00 | 87 | 1011.3 |
| 20260509045503 | 71 | 327 | 0.0 | 2.0 | 0.00 | 0.29 | 0.29 | 88 | 1011.5 |
| 20260509045003 | 71 | 164 | 0.0 | 1.0 | 0.00 | 0.29 | 0.29 | 87 | 1011.0 |
| 20260509044503 | 71 | 163 | 0.0 | 1.0 | 0.00 | 0.29 | 0.29 | 87 | 1010.4 |
| 20260509044003 | 72 | 166 | 0.0 | 1.0 | 0.00 | 0.29 | 0.29 | 87 | 1010.0 |
| 20260509043713 | 72 | 166 | 0.0 | 1.0 | 0.00 | 0.29 | 0.29 | 87 | 1010.0 |
| 20260509043003 | 72 | 166 | 0.0 | 3.0 | 0.00 | 0.29 | 0.29 | 87 | 1009.8 |
| 20260509042503 | 72 | 149 | 1.0 | 3.0 | 0.00 | 0.29 | 0.29 | 86 | 1009.6 |
| 20260509042003 | 72 | 117 | 1.0 | 5.0 | 0.00 | 0.29 | 0.29 | 86 | 1009.5 |
| 20260509041503 | 72 | 128 | 1.0 | 5.0 | 0.00 | 0.29 | 0.29 | 86 | 1009.3 |
| 20260509041003 | 72 | 124 | 1.0 | 4.0 | 0.00 | 0.29 | 0.29 | 86 | 1009.2 |
| 20260509040503 | 72 | 123 | 1.0 | 4.0 | 0.00 | 0.29 | 0.29 | 86 | 1009.3 |
| 20260509040003 | 72 | 145 | 1.0 | 3.0 | 0.00 | 0.29 | 0.29 | 86 | 1009.3 |
| 20260509035503 | 72 | 133 | 1.0 | 3.0 | 0.00 | 0.29 | 0.29 | 86 | 1009.3 |
| 20260509035003 | 72 | 126 | 1.0 | 3.0 | 0.00 | 0.29 | 0.29 | 86 | 1009.5 |
| 20260509034503 | 72 | 112 | 1.0 | 3.0 | 0.00 | 0.29 | 0.29 | 85 | 1009.3 |
| 20260509034003 | 72 | 87 | 1.0 | 3.0 | 0.00 | 0.29 | 0.29 | 85 | 1009.5 |
| 20260509033503 | 72 | 64 | 1.0 | 3.0 | 0.00 | 0.29 | 0.29 | 85 | 1009.5 |
| 20260509033003 | 72 | 45 | 1.0 | 5.0 | 0.00 | 0.29 | 0.29 | 85 | 1009.5 |
| 20260509032503 | 72 | 31 | 1.0 | 6.0 | 0.00 | 0.29 | 0.29 | 84 | 1009.7 |
| 20260509032214 | 72 | 31 | 1.0 | 6.0 | 0.00 | 0.29 | 0.29 | 84 | 1009.9 |
| 20260509031503 | 72 | 24 | 0.0 | 2.0 | 0.00 | 0.29 | 0.29 | 84 | 1009.8 |
| 20260509031003 | 72 | 46 | 1.0 | 5.0 | 0.00 | 0.29 | 0.29 | 85 | 1009.6 |
| 20260509030503 | 72 | 50 | 1.0 | 5.0 | 0.00 | 0.29 | 0.29 | 85 | 1009.3 |
| 20260509030003 | 72 | 76 | 1.0 | 6.0 | 0.00 | 0.29 | 0.29 | 84 | 1009.0 |
| 20260509025503 | 72 | 108 | 2.0 | 7.0 | 0.00 | 0.29 | 0.29 | 84 | 1008.6 |
| 20260509025214 | 72 | 115 | 2.0 | 7.0 | 0.00 | 0.29 | 0.29 | 84 | 1008.4 |
| 20260509024503 | 73 | 116 | 2.0 | 8.0 | 0.00 | 0.29 | 0.29 | 84 | 1008.2 |
| 20260509024003 | 73 | 112 | 2.0 | 5.0 | 0.00 | 0.29 | 0.29 | 84 | 1008.3 |
| 20260509023503 | 73 | 121 | 2.0 | 6.0 | 0.00 | 0.29 | 0.29 | 84 | 1008.2 |
| 20260509023003 | 73 | 127 | 3.0 | 10.0 | 0.00 | 0.29 | 0.29 | 83 | 1008.0 |
| 20260509022503 | 73 | 124 | 3.0 | 10.0 | 0.00 | 0.29 | 0.29 | 83 | 1007.9 |
| 20260509022213 | 73 | 128 | 2.0 | 10.0 | 0.00 | 0.29 | 0.29 | 83 | 1007.8 |
| 20260509021503 | 73 | 136 | 2.0 | 4.0 | 0.00 | 0.29 | 0.29 | 83 | 1007.7 |
| 20260509021003 | 73 | 132 | 2.0 | 6.0 | 0.00 | 0.29 | 0.29 | 83 | 1007.7 |
| 20260509020712 | 73 | 133 | 2.0 | 6.0 | 0.00 | 0.29 | 0.29 | 83 | 1007.7 |
| 20260509020003 | 73 | 130 | 2.0 | 7.0 | 0.00 | 0.29 | 0.29 | 83 | 1007.6 |
| 20260509015712 | 73 | 128 | 2.0 | 7.0 | 0.00 | 0.29 | 0.29 | 82 | 1007.5 |
| 20260509015213 | 73 | 130 | 2.0 | 7.0 | 0.00 | 0.29 | 0.29 | 82 | 1007.5 |
| 20260509014503 | 73 | 131 | 2.0 | 5.0 | 0.00 | 0.29 | 0.29 | 82 | 1007.5 |
| 20260509014003 | 73 | 128 | 2.0 | 7.0 | 0.00 | 0.29 | 0.29 | 82 | 1007.5 |
| 20260509013712 | 73 | 130 | 2.0 | 7.0 | 0.00 | 0.29 | 0.29 | 81 | 1007.6 |
| 20260509013003 | 73 | 128 | 2.0 | 8.0 | 0.00 | 0.29 | 0.29 | 81 | 1007.8 |
| 20260509012503 | 74 | 124 | 3.0 | 8.0 | 0.00 | 0.29 | 0.29 | 80 | 1007.9 |
| 20260509012003 | 74 | 123 | 2.0 | 8.0 | 0.00 | 0.29 | 0.29 | 80 | 1007.9 |
| 20260509011714 | 74 | 126 | 2.0 | 8.0 | 0.00 | 0.29 | 0.29 | 80 | 1008.0 |
| 20260509011003 | 74 | 134 | 2.0 | 5.0 | 0.00 | 0.29 | 0.29 | 80 | 1008.0 |
| 20260509010503 | 74 | 141 | 1.0 | 4.0 | 0.00 | 0.29 | 0.29 | 80 | 1008.1 |
| 20260509010003 | 74 | 168 | 1.0 | 4.0 | 0.00 | 0.29 | 0.29 | 80 | 1008.0 |
| 20260509005503 | 74 | 143 | 1.0 | 5.0 | 0.00 | 0.29 | 0.29 | 80 | 1007.9 |
| 20260509005003 | 74 | 121 | 2.0 | 8.0 | 0.00 | 0.29 | 0.29 | 80 | 1007.8 |
| 20260509004503 | 74 | 126 | 3.0 | 8.0 | 0.00 | 0.29 | 0.29 | 80 | 1007.7 |
| 20260509004003 | 74 | 127 | 3.0 | 9.0 | 0.00 | 0.29 | 0.29 | 80 | 1007.6 |
| 20260509003503 | 74 | 130 | 3.0 | 9.0 | 0.00 | 0.29 | 0.29 | 79 | 1007.6 |
| 20260509003003 | 74 | 135 | 3.0 | 8.0 | 0.00 | 0.29 | 0.29 | 79 | 1007.4 |
| 20260509002714 | 74 | 127 | 3.0 | 8.0 | 0.00 | 0.29 | 0.29 | 79 | 1007.4 |
| 20260509002212 | 74 | 121 | 3.0 | 8.0 | 0.00 | 0.29 | 0.29 | 78 | 1007.5 |
| 20260509001503 | 74 | 131 | 3.0 | 8.0 | 0.00 | 0.29 | 0.29 | 78 | 1007.4 |
| 20260509001003 | 74 | 148 | 3.0 | 7.0 | 0.00 | 0.29 | 0.29 | 78 | 1007.3 |
| 20260509000714 | 74 | 157 | 2.0 | 7.0 | 0.00 | 0.29 | 0.29 | 77 | 1007.4 |
| 20260509000003 | 75 | 145 | 3.0 | 7.0 | 0.00 | 0.29 | 0.29 | 77 | 1007.5 |
| 20260508235503 | 75 | 129 | 3.0 | 8.0 | 0.00 | 0.29 | 0.29 | 76 | 1007.5 |
| 20260508235003 | 75 | 128 | 3.0 | 8.0 | 0.00 | 0.29 | 0.29 | 76 | 1007.5 |
| 20260508234503 | 75 | 131 | 2.0 | 7.0 | 0.00 | 0.29 | 0.29 | 76 | 1007.6 |
| 20260508234212 | 76 | 126 | 3.0 | 8.0 | 0.00 | 0.29 | 0.29 | 76 | 1007.8 |
| 20260508233503 | 75 | 126 | 3.0 | 8.0 | 0.00 | 0.29 | 0.29 | 76 | 1007.7 |
| 20260508233003 | 75 | 131 | 3.0 | 8.0 | 0.00 | 0.29 | 0.29 | 75 | 1007.7 |
| 20260508232503 | 76 | 141 | 3.0 | 8.0 | 0.00 | 0.29 | 0.29 | 75 | 1007.9 |
| 20260508232003 | 76 | 142 | 3.0 | 8.0 | 0.00 | 0.29 | 0.29 | 74 | 1007.9 |
| 20260508231713 | 76 | 134 | 3.0 | 9.0 | 0.00 | 0.29 | 0.29 | 74 | 1007.9 |
| 20260508231003 | 76 | 127 | 4.0 | 9.0 | 0.00 | 0.29 | 0.29 | 74 | 1007.9 |
| 20260508230713 | 76 | 128 | 3.0 | 7.0 | 0.00 | 0.29 | 0.29 | 74 | 1007.9 |
| 20260508230003 | 76 | 137 | 4.0 | 10.0 | 0.00 | 0.29 | 0.29 | 73 | 1007.7 |
| 20260508225503 | 76 | 133 | 3.0 | 10.0 | 0.00 | 0.29 | 0.29 | 73 | 1007.9 |
| 20260508225003 | 76 | 117 | 3.0 | 9.0 | 0.00 | 0.29 | 0.29 | 72 | 1007.8 |
| 20260508224503 | 76 | 123 | 4.0 | 11.0 | 0.00 | 0.29 | 0.29 | 72 | 1007.9 |
| 20260508224003 | 77 | 122 | 4.0 | 11.0 | 0.00 | 0.29 | 0.29 | 71 | 1007.8 |
| 20260508223503 | 77 | 121 | 5.0 | 11.0 | 0.00 | 0.29 | 0.29 | 72 | 1007.8 |
| 20260508223003 | 77 | 125 | 4.0 | 11.0 | 0.00 | 0.29 | 0.29 | 72 | 1007.9 |
| 20260508222713 | 77 | 124 | 4.0 | 11.0 | 0.00 | 0.29 | 0.29 | 71 | 1008.0 |
| 20260508222003 | 77 | 125 | 5.0 | 12.0 | 0.00 | 0.29 | 0.29 | 70 | 1007.9 |
| 20260508221503 | 78 | 122 | 5.0 | 14.0 | 0.00 | 0.29 | 0.29 | 69 | 1008.0 |
| 20260508221003 | 77 | 124 | 5.0 | 14.0 | 0.00 | 0.29 | 0.29 | 68 | 1008.0 |
| 20260508220713 | 78 | 124 | 6.0 | 14.0 | 0.00 | 0.29 | 0.29 | 68 | 1007.9 |
| 20260508220003 | 78 | 120 | 5.0 | 12.0 | 0.00 | 0.29 | 0.29 | 68 | 1007.9 |
| 20260508215503 | 78 | 115 | 4.0 | 9.0 | 0.00 | 0.29 | 0.29 | 67 | 1007.9 |
| 20260508215003 | 78 | 114 | 4.0 | 9.0 | 0.00 | 0.29 | 0.29 | 68 | 1008.0 |
| 20260508214713 | 78 | 122 | 4.0 | 9.0 | 0.00 | 0.29 | 0.29 | 68 | 1008.0 |
| 20260508214003 | 78 | 131 | 4.0 | 9.0 | 0.00 | 0.29 | 0.29 | 67 | 1008.0 |
| 20260508213503 | 78 | 126 | 5.0 | 13.0 | 0.00 | 0.29 | 0.29 | 67 | 1008.0 |
| 20260508213003 | 78 | 121 | 5.0 | 13.0 | 0.00 | 0.29 | 0.29 | 67 | 1008.1 |
| 20260508212503 | 78 | 118 | 5.0 | 11.0 | 0.00 | 0.29 | 0.29 | 67 | 1008.1 |
| 20260508212003 | 78 | 115 | 5.0 | 11.0 | 0.00 | 0.29 | 0.29 | 68 | 1008.1 |
| 20260508211712 | 77 | 116 | 5.0 | 10.0 | 0.00 | 0.29 | 0.29 | 67 | 1008.2 |
| 20260508211003 | 78 | 121 | 4.0 | 10.0 | 0.00 | 0.29 | 0.29 | 68 | 1008.4 |
| 20260508210503 | 78 | 121 | 3.0 | 8.0 | 0.00 | 0.29 | 0.29 | 67 | 1008.4 |
| 20260508210213 | 78 | 120 | 3.0 | 8.0 | 0.00 | 0.29 | 0.29 | 68 | 1008.6 |
| 20260508205503 | 77 | 119 | 3.0 | 8.0 | 0.00 | 0.29 | 0.29 | 68 | 1008.6 |
| 20260508205003 | 77 | 109 | 3.0 | 8.0 | 0.00 | 0.29 | 0.29 | 68 | 1008.6 |
| 20260508204503 | 77 | 90 | 3.0 | 7.0 | 0.00 | 0.29 | 0.29 | 68 | 1008.6 |
| 20260508204003 | 77 | 103 | 3.0 | 6.0 | 0.00 | 0.29 | 0.29 | 67 | 1008.6 |
| 20260508203503 | 77 | 125 | 3.0 | 10.0 | 0.00 | 0.29 | 0.29 | 69 | 1008.6 |
| 20260508203003 | 76 | 116 | 4.0 | 10.0 | 0.00 | 0.29 | 0.29 | 68 | 1009.2 |
| 20260508202503 | 75 | 105 | 4.0 | 10.0 | 0.00 | 0.29 | 0.29 | 71 | 1009.4 |
| 20260508202003 | 74 | 121 | 4.0 | 10.0 | 0.00 | 0.29 | 0.29 | 70 | 1009.7 |
| 20260508201503 | 74 | 132 | 4.0 | 11.0 | 0.00 | 0.29 | 0.29 | 71 | 1009.9 |
| 20260508201213 | 74 | 137 | 3.0 | 11.0 | 0.00 | 0.29 | 0.29 | 71 | 1010.1 |
| 20260508200503 | 74 | 132 | 3.0 | 9.0 | 0.00 | 0.29 | 0.29 | 71 | 1010.4 |
| 20260508200003 | 74 | 135 | 3.0 | 9.0 | 0.00 | 0.29 | 0.29 | 70 | 1010.5 |
| 20260508195714 | 74 | 146 | 3.0 | 7.0 | 0.00 | 0.29 | 0.29 | 70 | 1010.6 |
| 20260508195003 | 75 | 138 | 3.0 | 8.0 | 0.00 | 0.29 | 0.29 | 70 | 1010.4 |
| 20260508194503 | 75 | 120 | 4.0 | 8.0 | 0.00 | 0.29 | 0.29 | 70 | 1010.4 |
| 20260508194003 | 75 | 121 | 4.0 | 8.0 | 0.00 | 0.29 | 0.29 | 69 | 1010.4 |
| 20260508193503 | 75 | 130 | 3.0 | 8.0 | 0.00 | 0.29 | 0.29 | 69 | 1010.4 |
| 20260508193003 | 76 | 144 | 3.0 | 7.0 | 0.00 | 0.29 | 0.29 | 69 | 1010.3 |
| 20260508192503 | 75 | 140 | 3.0 | 7.0 | 0.00 | 0.29 | 0.29 | 69 | 1010.3 |
| 20260508192003 | 75 | 123 | 4.0 | 10.0 | 0.00 | 0.29 | 0.29 | 69 | 1010.4 |
| 20260508191503 | 76 | 123 | 4.0 | 10.0 | 0.00 | 0.29 | 0.29 | 69 | 1010.5 |
| 20260508191003 | 76 | 122 | 4.0 | 10.0 | 0.00 | 0.29 | 0.29 | 68 | 1010.5 |
| 20260508190503 | 76 | 120 | 4.0 | 9.0 | 0.00 | 0.29 | 0.29 | 68 | 1010.5 |
| 20260508190213 | 76 | 120 | 4.0 | 9.0 | 0.00 | 0.29 | 0.29 | 68 | 1010.5 |
| 20260508185503 | 76 | 126 | 3.0 | 9.0 | 0.00 | 0.29 | 0.29 | 67 | 1010.6 |
| 20260508185003 | 77 | 137 | 3.0 | 9.0 | 0.00 | 0.29 | 0.29 | 67 | 1010.6 |
| 20260508184503 | 76 | 146 | 3.0 | 6.0 | 0.00 | 0.29 | 0.29 | 67 | 1010.5 |
| 20260508184003 | 77 | 148 | 3.0 | 9.0 | 0.00 | 0.29 | 0.29 | 67 | 1010.6 |
| 20260508183503 | 78 | 147 | 3.0 | 9.0 | 0.00 | 0.29 | 0.29 | 66 | 1010.7 |
| 20260508183003 | 78 | 132 | 3.0 | 7.0 | 0.00 | 0.29 | 0.29 | 66 | 1010.8 |
| 20260508182503 | 77 | 141 | 3.0 | 8.0 | 0.00 | 0.29 | 0.29 | 66 | 1010.9 |
| 20260508182003 | 78 | 138 | 3.0 | 8.0 | 0.00 | 0.29 | 0.29 | 65 | 1011.0 |
| 20260508181713 | 78 | 131 | 3.0 | 8.0 | 0.00 | 0.29 | 0.29 | 66 | 1011.0 |
| 20260508181212 | 77 | 132 | 3.0 | 10.0 | 0.00 | 0.29 | 0.29 | 66 | 1011.1 |
| 20260508180503 | 77 | 144 | 3.0 | 8.0 | 0.00 | 0.29 | 0.29 | 64 | 1011.2 |
| 20260508180003 | 77 | 128 | 4.0 | 9.0 | 0.00 | 0.29 | 0.29 | 65 | 1011.2 |
| 20260508175503 | 76 | 124 | 4.0 | 9.0 | 0.00 | 0.29 | 0.29 | 66 | 1011.4 |
| 20260508175003 | 77 | 125 | 3.0 | 8.0 | 0.00 | 0.29 | 0.29 | 65 | 1011.6 |
| 20260508174713 | 77 | 131 | 3.0 | 9.0 | 0.00 | 0.29 | 0.29 | 65 | 1011.5 |
| 20260508174003 | 77 | 136 | 3.0 | 9.0 | 0.00 | 0.29 | 0.29 | 66 | 1011.6 |
| 20260508173503 | 76 | 122 | 3.0 | 7.0 | 0.00 | 0.29 | 0.29 | 68 | 1011.7 |
| 20260508173212 | 76 | 121 | 3.0 | 8.0 | 0.00 | 0.29 | 0.29 | 67 | 1011.6 |
| 20260508172503 | 76 | 132 | 4.0 | 8.0 | 0.00 | 0.29 | 0.29 | 69 | 1011.7 |
| 20260508172003 | 76 | 143 | 4.0 | 9.0 | 0.00 | 0.29 | 0.29 | 68 | 1011.9 |
| 20260508171503 | 76 | 171 | 3.0 | 9.0 | 0.00 | 0.29 | 0.29 | 69 | 1011.9 |
| 20260508171003 | 76 | 158 | 3.0 | 8.0 | 0.00 | 0.29 | 0.29 | 69 | 1011.9 |
| 20260508170503 | 75 | 129 | 3.0 | 8.0 | 0.00 | 0.29 | 0.29 | 69 | 1011.9 |
| 20260508170003 | 75 | 125 | 3.0 | 8.0 | 0.00 | 0.29 | 0.29 | 71 | 1012.0 |
| 20260508165503 | 75 | 126 | 3.0 | 8.0 | 0.00 | 0.29 | 0.29 | 69 | 1012.2 |
| 20260508165003 | 74 | 127 | 2.0 | 7.0 | 0.00 | 0.29 | 0.29 | 70 | 1012.3 |
| 20260508164713 | 74 | 127 | 2.0 | 7.0 | 0.00 | 0.29 | 0.29 | 70 | 1012.3 |
| 20260508164003 | 74 | 117 | 3.0 | 8.0 | 0.00 | 0.29 | 0.29 | 71 | 1012.5 |
| 20260508163503 | 74 | 120 | 2.0 | 8.0 | 0.00 | 0.29 | 0.29 | 69 | 1012.6 |
| 20260508163003 | 74 | 139 | 3.0 | 8.0 | 0.00 | 0.29 | 0.29 | 71 | 1012.6 |
| 20260508162503 | 72 | 138 | 2.0 | 8.0 | 0.00 | 0.29 | 0.29 | 71 | 1012.7 |
| 20260508162213 | 72 | 126 | 2.0 | 7.0 | 0.00 | 0.29 | 0.29 | 73 | 1012.9 |
| 20260508161503 | 71 | 123 | 3.0 | 7.0 | 0.00 | 0.29 | 0.29 | 73 | 1013.0 |
| 20260508161213 | 70 | 134 | 2.0 | 7.0 | 0.00 | 0.29 | 0.29 | 73 | 1013.0 |
| 20260508160503 | 70 | 127 | 2.0 | 7.0 | 0.00 | 0.29 | 0.29 | 73 | 1013.1 |
| 20260508160213 | 70 | 115 | 2.0 | 7.0 | 0.00 | 0.29 | 0.29 | 72 | 1013.1 |
| 20260508155503 | 70 | 109 | 2.0 | 7.0 | 0.00 | 0.29 | 0.29 | 72 | 1013.1 |
| 20260508155003 | 70 | 123 | 2.0 | 7.0 | 0.00 | 0.29 | 0.29 | 72 | 1013.1 |
| 20260508154712 | 70 | 129 | 2.0 | 7.0 | 0.00 | 0.29 | 0.29 | 72 | 1013.2 |
| 20260508154003 | 70 | 124 | 2.0 | 7.0 | 0.00 | 0.29 | 0.29 | 72 | 1013.3 |
| 20260508153503 | 70 | 129 | 2.0 | 4.0 | 0.00 | 0.29 | 0.29 | 73 | 1013.3 |
| 20260508153003 | 69 | 114 | 2.0 | 6.0 | 0.00 | 0.29 | 0.29 | 73 | 1013.4 |
| 20260508152503 | 69 | 114 | 3.0 | 6.0 | 0.00 | 0.29 | 0.29 | 72 | 1013.4 |
| 20260508152003 | 69 | 124 | 3.0 | 8.0 | 0.00 | 0.29 | 0.29 | 74 | 1013.6 |
| 20260508151503 | 69 | 124 | 3.0 | 8.0 | 0.00 | 0.29 | 0.29 | 75 | 1013.6 |
| 20260508151213 | 68 | 122 | 2.0 | 6.0 | 0.00 | 0.29 | 0.29 | 78 | 1013.5 |
| 20260508150503 | 67 | 130 | 2.0 | 6.0 | 0.00 | 0.29 | 0.29 | 79 | 1013.6 |
| 20260508150003 | 66 | 136 | 1.0 | 5.0 | 0.00 | 0.29 | 0.29 | 80 | 1013.7 |
| 20260508145503 | 66 | 122 | 1.0 | 5.0 | 0.00 | 0.29 | 0.29 | 81 | 1013.7 |
| 20260508145213 | 66 | 119 | 1.0 | 5.0 | 0.00 | 0.29 | 0.29 | 81 | 1013.7 |
| 20260508144503 | 65 | 117 | 1.0 | 3.0 | 0.00 | 0.29 | 0.29 | 82 | 1014.0 |
| 20260508144003 | 65 | 133 | 1.0 | 2.0 | 0.00 | 0.29 | 0.29 | 82 | 1014.0 |
| 20260508143503 | 65 | 125 | 1.0 | 3.0 | 0.00 | 0.29 | 0.29 | 83 | 1014.2 |
| 20260508143003 | 65 | 124 | 1.0 | 3.0 | 0.00 | 0.29 | 0.29 | 82 | 1014.0 |
| 20260508142503 | 65 | 117 | 1.0 | 3.0 | 0.00 | 0.29 | 0.29 | 84 | 1013.9 |
| 20260508142213 | 65 | 117 | 1.0 | 3.0 | 0.00 | 0.29 | 0.29 | 85 | 1014.0 |
| 20260508141714 | 65 | 123 | 1.0 | 4.0 | 0.00 | 0.29 | 0.29 | 87 | 1014.0 |
| 20260508141003 | 64 | 130 | 1.0 | 4.0 | 0.00 | 0.29 | 0.29 | 87 | 1014.1 |
| 20260508140503 | 64 | 136 | 1.0 | 3.0 | 0.01 | 0.29 | 0.29 | 87 | 1014.1 |
| 20260508140213 | 64 | 140 | 1.0 | 3.0 | 0.01 | 0.29 | 0.29 | 89 | 1014.2 |
| 20260508135503 | 64 | 155 | 1.0 | 3.0 | 0.01 | 0.29 | 0.29 | 89 | 1013.8 |
| 20260508135003 | 64 | 151 | 1.0 | 4.0 | 0.01 | 0.29 | 0.29 | 89 | 1014.0 |
| 20260508134503 | 64 | 132 | 2.0 | 4.0 | 0.01 | 0.29 | 0.29 | 90 | 1014.0 |
| 20260508134003 | 63 | 122 | 2.0 | 4.0 | 0.01 | 0.29 | 0.29 | 90 | 1013.9 |
| 20260508133503 | 63 | 127 | 2.0 | 7.0 | 0.01 | 0.29 | 0.29 | 90 | 1013.7 |
| 20260508133003 | 63 | 127 | 2.0 | 7.0 | 0.01 | 0.29 | 0.29 | 90 | 1014.0 |
| 20260508132503 | 63 | 127 | 2.0 | 4.0 | 0.01 | 0.29 | 0.29 | 91 | 1013.9 |
| 20260508132003 | 63 | 142 | 2.0 | 4.0 | 0.01 | 0.29 | 0.29 | 91 | 1014.0 |
| 20260508131503 | 63 | 147 | 1.0 | 3.0 | 0.01 | 0.29 | 0.29 | 92 | 1013.9 |
| 20260508131003 | 62 | 149 | 1.0 | 3.0 | 0.01 | 0.29 | 0.29 | 92 | 1013.8 |
| 20260508130503 | 62 | 154 | 0.0 | 2.0 | 0.00 | 0.28 | 0.28 | 92 | 1013.6 |
| 20260508130003 | 62 | 156 | 0.0 | 1.0 | 0.00 | 0.28 | 0.28 | 92 | 1014.1 |
| 20260508125713 | 61 | 156 | 0.0 | 1.0 | 0.00 | 0.28 | 0.28 | 92 | 1014.0 |
| 20260508125212 | 61 | 156 | 0.0 | 2.0 | 0.00 | 0.28 | 0.28 | 92 | 1013.9 |
| 20260508124713 | 61 | 156 | 0.0 | 2.0 | 0.00 | 0.28 | 0.28 | 92 | 1014.1 |
| 20260508124003 | 61 | 156 | 0.0 | 2.0 | 0.00 | 0.28 | 0.28 | 92 | 1014.0 |
| 20260508123503 | 61 | 156 | 0.0 | 2.0 | 0.00 | 0.28 | 0.28 | 92 | 1014.2 |
| 20260508123003 | 61 | 156 | 1.0 | 3.0 | 0.00 | 0.28 | 0.28 | 92 | 1014.1 |
| 20260508122503 | 60 | 156 | 1.0 | 3.0 | 0.00 | 0.28 | 0.28 | 92 | 1014.2 |
| 20260508122003 | 60 | 155 | 1.0 | 3.0 | 0.00 | 0.28 | 0.28 | 92 | 1014.0 |
| 20260508121503 | 60 | 136 | 1.0 | 3.0 | 0.00 | 0.28 | 0.28 | 92 | 1014.2 |
| 20260508121003 | 60 | 135 | 2.0 | 4.0 | 0.00 | 0.28 | 0.28 | 92 | 1014.1 |
| 20260508120713 | 60 | 134 | 2.0 | 6.0 | 0.00 | 0.28 | 0.28 | 92 | 1014.1 |
| 20260508120214 | 60 | 140 | 2.0 | 6.0 | 0.00 | 0.28 | 0.28 | 92 | 1014.3 |
| 20260508115713 | 61 | 131 | 1.0 | 3.0 | 0.00 | 0.28 | 0.28 | 93 | 1014.4 |
| 20260508115003 | 60 | 200 | 1.0 | 3.0 | 0.00 | 0.28 | 0.28 | 93 | 1014.1 |
| 20260508114503 | 60 | 226 | 0.0 | 3.0 | 0.00 | 0.28 | 0.28 | 93 | 1014.8 |
| 20260508114214 | 60 | 140 | 0.0 | 2.0 | 0.00 | 0.28 | 0.28 | 93 | 1014.3 |
| 20260508113503 | 60 | 140 | 0.0 | 2.0 | 0.00 | 0.28 | 0.28 | 93 | 1013.8 |
| 20260508113214 | 60 | 140 | 0.0 | 1.0 | 0.00 | 0.28 | 0.28 | 93 | 1013.9 |
| 20260508112503 | 61 | 140 | 0.0 | 1.0 | 0.01 | 0.28 | 0.28 | 93 | 1014.0 |
| 20260508112003 | 61 | 139 | 0.0 | 2.0 | 0.02 | 0.28 | 0.28 | 93 | 1014.0 |
| 20260508111503 | 60 | 139 | 0.0 | 2.0 | 0.11 | 0.28 | 0.28 | 93 | 1014.1 |
| 20260508111003 | 60 | 0 | 0.0 | 0.0 | 0.13 | 0.28 | 0.28 | 93 | 1014.0 |
| 20260508110503 | 60 | 138 | 0.0 | 1.0 | 0.17 | 0.28 | 0.28 | 93 | 1013.9 |
| 20260508110003 | 60 | 135 | 0.0 | 4.0 | 0.17 | 0.28 | 0.28 | 93 | 1013.8 |
| 20260508105503 | 60 | 130 | 1.0 | 4.0 | 0.17 | 0.28 | 0.28 | 93 | 1013.8 |
| 20260508105003 | 60 | 129 | 1.0 | 3.0 | 0.17 | 0.28 | 0.28 | 93 | 1013.5 |
| 20260508104503 | 60 | 132 | 0.0 | 2.0 | 0.17 | 0.28 | 0.28 | 93 | 1013.6 |
| 20260508104003 | 60 | 132 | 0.0 | 2.0 | 0.17 | 0.28 | 0.28 | 93 | 1013.8 |
| 20260508103503 | 60 | 138 | 0.0 | 2.0 | 0.17 | 0.28 | 0.28 | 92 | 1013.6 |
| 20260508103003 | 60 | 138 | 0.0 | 2.0 | 0.18 | 0.28 | 0.28 | 92 | 1013.8 |
| 20260508102503 | 60 | 88 | 1.0 | 3.0 | 0.17 | 0.27 | 0.27 | 92 | 1013.7 |
| 20260508102003 | 61 | 56 | 1.0 | 3.0 | 0.16 | 0.26 | 0.26 | 92 | 1013.9 |
| 20260508101503 | 61 | 319 | 0.0 | 2.0 | 0.07 | 0.17 | 0.18 | 92 | 1013.8 |
| 20260508101213 | 61 | 309 | 0.0 | 2.0 | 0.06 | 0.16 | 0.16 | 92 | 1014.5 |
| 20260508100503 | 61 | 321 | 0.0 | 2.0 | 0.01 | 0.11 | 0.11 | 92 | 1013.9 |
| 20260508100003 | 60 | 0 | 0.0 | 0.0 | 0.01 | 0.11 | 0.11 | 92 | 1013.4 |
| 20260508095712 | 60 | 0 | 0.0 | 0.0 | 0.01 | 0.11 | 0.11 | 92 | 1013.4 |
| 20260508095003 | 60 | 0 | 0.0 | 0.0 | 0.01 | 0.11 | 0.11 | 92 | 1013.5 |
| 20260508094503 | 60 | 0 | 0.0 | 0.0 | 0.01 | 0.11 | 0.11 | 92 | 1013.7 |
| 20260508094003 | 60 | 0 | 0.0 | 0.0 | 0.01 | 0.11 | 0.11 | 92 | 1013.6 |
| 20260508093503 | 60 | 0 | 0.0 | 0.0 | 0.01 | 0.11 | 0.11 | 92 | 1013.3 |
| 20260508093003 | 60 | 0 | 0.0 | 0.0 | 0.00 | 0.10 | 0.10 | 91 | 1013.3 |
| 20260508092503 | 60 | 0 | 0.0 | 0.0 | 0.01 | 0.10 | 0.10 | 92 | 1013.6 |
| 20260508092003 | 60 | 0 | 0.0 | 0.0 | 0.02 | 0.10 | 0.10 | 91 | 1013.3 |